Hourly Weather Roundup
Issued by NWS Central Illinois

Home | Current Version | Previous Version | Text Only | Print | Product List | Glossary On
Versions: 1 2 3 4 5 6 7 8 9 10 11 12 13 14 15 16 17 18 19 20 21 22 23 24 25 26 27 28 29 30 31 32 33 34 35 36 37 38 39 40 41 42 43 44 45 46 47 48 49 50
839
NZUS43 KILX 251410
HWRILX

AREA WEATHER ROUNDUP
NATIONAL WEATHER SERVICE, LINCOLN IL
900 AM CDT WED MAY 25 2016


CITY           SKY/WX    TMP DP  RH WIND       PRES   REMARKS
BLOOMINGTON    SUNNY     72  64  75 S12       30.03F
CHAMPAIGN      SUNNY     74  61  63 S9        30.04F
DANVILLE       SUNNY     73  62  68 S10       30.04F
DECATUR        MOSUNNY   75  62  64 S7        30.02F
EFFINGHAM      CLOUDY    73  66  78 S6        30.06F
FLORA          PTSUNNY   73  65  76 S13       30.07S
GALESBURG      CLOUDY    69  62  80 SE9       29.97F
JACKSONVILLE   MOSUNNY   72  62  71 S13       29.99S
LACON          MOSUNNY   72  62  71 S8        29.99F
LAWRENCEVILLE  CLOUDY    73  63  70 S6        30.08S
LITCHFIELD     CLOUDY    69  61  76 S13       30.02S
$$


CITY           SKY/WX    TMP DP  RH WIND       PRES   REMARKS
LINCOLN        MOSUNNY   73  65  75 S7        30.01S
MACOMB         MOSUNNY   70  63  80 S10       30.00F
MATTOON        MOSUNNY   73  61  65 S10       30.04F
MT CARMEL AP   PTSUNNY   73  62  68 SW7       30.08S
OLNEY-NOBLE AP PTSUNNY   72  63  73 S7        30.08S
PARIS          CLOUDY    73  62  67 S7        30.07F
PEORIA         PTSUNNY   71  62  73 S13       30.00S
PONTIAC        SUNNY     74  64  73 S9        30.03F
RANTOUL        SUNNY     75  63  66 SW7       30.05F
ROBINSON       MOSUNNY   73  64  73 S6        30.09S
SPRINGFIELD    MOSUNNY   74  62  66 S10       30.01S
TAYLORVILLE    CLOUDY    73  62  69 S10       30.02S
$$

...REGIONAL REPORTS...


CITY           SKY/WX    TMP DP  RH WIND       PRES   REMARKS
CHICAGO O`HARE PTSUNNY   76  64  66 S8        30.01S
KANKAKEE       CLOUDY   N/A N/A N/A SW7       30.05F
MOLINE         CLOUDY    71  62  73 S12       29.95S
MOUNT STERLING CLOUDY    67  62  83 S9        29.98S
MOUNT VERNON   CLOUDY    68  63  83 S7        30.08S THUNDER
PITTSFIELD     PTSUNNY   69  63  83 S6        29.99F
QUINCY         PTSUNNY   69  63  81 S9        29.96F
ROCKFORD       CLOUDY    75  65  70 S9        29.99F
$$


CITY           SKY/WX    TMP DP  RH WIND       PRES   REMARKS
BURLINGTON     CLOUDY    65  64  97 S10       29.94F
CEDAR RAPIDS   CLOUDY    67  65  93 SE7       29.93F
DES MOINES     LGT RAIN  66  63  90 S6        29.91S
KIRKSVILLE     CLOUDY    67  64  90 SE16      29.93R
OTTUMWA        CLOUDY    67  63  87 S10       29.90S
ST LOUIS       LGT RAIN  71  62  73 SW9       30.01S
$$


CITY           SKY/WX    TMP DP  RH WIND       PRES   REMARKS
TERRE HAUTE    SUNNY     74  61  63 SW8       30.08R
EVANSVILLE     CLOUDY    74  61  63 SW5       30.09S
INDIANAPOLIS   PTSUNNY   73  61  65 S9        30.08S
LAFAYETTE      SUNNY     73  60  63 S9        30.07R
MADISON        CLOUDY    71  62  73 S8        29.98F
MILWAUKEE      CLOUDY    75  64  68 CALM      30.01R
$$






USA.gov is the U.S. government's official web portal to all federal, state and local government web resources and services.